Weather History for Palma de Mallorca, Spain

Change the Weather History Date:

Friday, March 7, 2014

  Actual Average Record
Temperature  
Mean Temperature 50 °F -  
Max Temperature 68 °F 63 °F 73 °F (2001)
Min Temperature 33 °F 42 °F 30 °F (2005)
Degree Days  
Heating Degree Days 14    
Moisture  
Dew Point 35 °F    
Average Humidity 59    
Maximum Humidity 93    
Minimum Humidity 15    
Precipitation  
Precipitation 0.00 in 0.05 in - ()
Sea Level Pressure  
Sea Level Pressure 30.24 in    
Wind  
Wind Speed 2 mph ()    
Max Wind Speed 12 mph    
Max Gust Speed -    
Visibility 8.6 miles    
Events      
Averages and records for this station are not official NWS values.
T = Trace of Precipitation, MM = Missing Value Source: Averaged Metar Reports

Daily Weather History Graph

Daily Weather History Graph

Search for Another Location

Airport:

Trip Planner

Search our weather history database for the weather conditions in past years. The results will help you decide how hot, cold, wet, or windy it might be!

Date:

Astronomy

Mar. 07, 2014 Rise Set
Actual Time 7:13 AM CET 6:47 PM CET
Civil Twilight 6:46 AM CET 7:14 PM CET
Nautical Twilight 6:15 AM CET 7:45 PM CET
Astronomical Twilight 5:44 AM CET 8:16 PM CET
Moon 10:55 AM CET (3/7) 12:36 AM CET (3/7)
Length of Visible Light 12h 27m
Length of Day
11h 34m
Waxing Crescent, 39% of the Moon is Illuminated
Mar 7
Waxing Crescent
Mar 8
First Quarter
Mar 16
Full
Mar 24
Last Quarter
Mar 30
New

Hourly Weather History & Observations

Time (CET) Temp. Windchill Dew Point Humidity Pressure Visibility Wind Dir Wind Speed Gust Speed Precip Events Conditions
12:00 AM 43 °F - 36 °F 69% 30.24 in - Calm Calm - -  
12:00 AM 44.6 °F - 37.4 °F 76% 30.21 in - Calm Calm - N/A   Clear
12:30 AM 39.2 °F - 35.6 °F 87% 30.21 in - Variable 1.2 mph - N/A   Clear
1:00 AM 39 °F - 36 °F 85% 30.24 in 12 mi NE 1.2 mph - -  
1:00 AM 39.2 °F - 35.6 °F 87% 30.21 in - Variable 1.2 mph - N/A   Clear
1:30 AM 39.2 °F - 35.6 °F 87% 30.21 in - Calm Calm - N/A   Clear
2:00 AM 38 °F - 35 °F 85% 30.24 in - Calm Calm - -  
2:00 AM 39.2 °F - 35.6 °F 87% 30.21 in - Calm Calm - N/A   Clear
2:30 AM 37.4 °F - 33.8 °F 87% 30.21 in - NE 2.3 mph - N/A   Clear
3:00 AM 36 °F - 34 °F 90% 30.24 in - NNW 2.3 mph - -  
3:00 AM 37.4 °F - 35.6 °F 93% 30.21 in - Variable 1.2 mph - N/A   Clear
3:30 AM 37.4 °F - 33.8 °F 87% 30.21 in - Calm Calm - N/A   Clear
4:00 AM 37 °F - 36 °F 92% 30.23 in 11 mi ENE 2.3 mph - -  
4:00 AM 37.4 °F - 33.8 °F 87% 30.21 in - NE 2.3 mph - N/A   Clear
4:30 AM 35.6 °F 32.8 °F 32.0 °F 87% 30.21 in - NNE 3.5 mph - N/A   Clear
5:00 AM 37 °F - 33 °F 81% 30.23 in - ENE 3.5 mph - -  
5:00 AM 37.4 °F - 33.8 °F 87% 30.21 in - ENE 2.3 mph - N/A   Clear
5:30 AM 35.6 °F - 32.0 °F 87% 30.21 in - Calm Calm - N/A   Clear
6:00 AM 35 °F - 32 °F 85% 30.24 in - ENE 2.3 mph - -  
6:00 AM 33.8 °F - 32.0 °F 93% 30.21 in - Calm Calm - N/A   Clear
6:30 AM 33.8 °F - 30.2 °F 87% 30.24 in - Variable 1.2 mph - N/A   Clear
7:00 AM 34 °F - 32 °F 88% 30.25 in 11 mi NE 2.3 mph - -   Scattered Clouds
7:00 AM 33.8 °F 30.8 °F 32.0 °F 93% 30.24 in 6.2 mi NE 3.5 mph - N/A   Partly Cloudy
7:30 AM 35.6 °F - 32.0 °F 87% 30.24 in 6.2 mi Calm Calm - N/A   Partly Cloudy
8:00 AM 37 °F - 33 °F 80% 30.27 in - East 2.3 mph - -  
8:00 AM 37.4 °F - 33.8 °F 87% 30.24 in 6.2 mi Calm Calm - N/A   Partly Cloudy
8:30 AM 41.0 °F - 37.4 °F 87% 30.24 in 6.2 mi Calm Calm - N/A   Partly Cloudy
9:00 AM 46 °F - 39 °F 68% 30.27 in - East 2.3 mph - -  
9:00 AM 44.6 °F - 39.2 °F 81% 30.27 in 6.2 mi Calm Calm - N/A   Partly Cloudy
9:30 AM 50.0 °F - 42.8 °F 76% 30.27 in 6.2 mi Calm Calm - N/A   Partly Cloudy
10:00 AM 57 °F - 43 °F 48% 30.27 in 19 mi East 2.3 mph - -   Scattered Clouds
10:00 AM 57.2 °F - 46.4 °F 67% 30.27 in 6.2 mi Variable 1.2 mph - N/A   Partly Cloudy
10:30 AM 59.0 °F - 42.8 °F 55% 30.27 in 6.2 mi Variable 1.2 mph - N/A   Partly Cloudy
11:00 AM 62 °F - 36 °F 27% 30.27 in - NE 2.3 mph - -  
11:00 AM 62.6 °F - 39.2 °F 42% 30.27 in 6.2 mi Calm Calm - N/A   Partly Cloudy
11:30 AM 62.6 °F - 37.4 °F 39% 30.27 in 6.2 mi NE 1.2 mph - N/A   Partly Cloudy
12:00 PM 66 °F - 35 °F 21% 30.27 in - North 3.5 mph - -  
12:00 PM 64.4 °F - 33.8 °F 32% 30.27 in 6.2 mi Calm Calm - N/A   Partly Cloudy
12:30 PM 62.6 °F - 46.4 °F 55% 30.27 in 6.2 mi WSW 6.9 mph - N/A   Partly Cloudy
1:00 PM 65 °F - 43 °F 33% 30.27 in 19 mi SSW 8.1 mph - -   Scattered Clouds
1:00 PM 62.6 °F - 46.4 °F 55% 30.24 in 6.2 mi WSW 8.1 mph - N/A   Partly Cloudy
1:30 PM 64.4 °F - 42.8 °F 45% 30.24 in 6.2 mi WSW 6.9 mph - N/A   Partly Cloudy
2:00 PM 66 °F - 40 °F 27% 30.25 in - SW 10.4 mph - -  
2:00 PM 64.4 °F - 39.2 °F 40% 30.24 in 6.2 mi WSW 8.1 mph - N/A   Partly Cloudy
2:30 PM 64.4 °F - 37.4 °F 37% 30.24 in 6.2 mi WSW 9.2 mph - N/A   Partly Cloudy
3:00 PM 67 °F - 35 °F 19% 30.24 in - SW 11.5 mph - -  
3:00 PM 66.2 °F - 35.6 °F 32% 30.24 in 6.2 mi WSW 9.2 mph - N/A   Partly Cloudy
3:30 PM 66.2 °F - 33.8 °F 30% 30.21 in - WSW 9.2 mph - N/A   Clear
4:00 PM 67 °F - 31 °F 15% 30.23 in - WSW 10.4 mph - -  
4:00 PM 66.2 °F - 30.2 °F 26% 30.21 in - WSW 8.1 mph - N/A   Clear
4:30 PM 66.2 °F - 28.4 °F 24% 30.21 in - WSW 10.4 mph - N/A   Clear
5:00 PM 66 °F - 32 °F 17% 30.23 in - WNW 9.2 mph - -  
5:00 PM 64.4 °F - 30.2 °F 28% 30.21 in - WNW 9.2 mph - N/A   Clear
5:30 PM 64.4 °F - 30.2 °F 28% 30.21 in - NW 10.4 mph - N/A   Clear
6:00 PM 63 °F - 30 °F 18% 30.24 in - WNW 8.1 mph - -  
6:00 PM 62.6 °F - 30.2 °F 30% 30.21 in - WNW 11.5 mph - N/A   Clear
6:30 PM 60.8 °F - 30.2 °F 31% 30.24 in - WNW 9.2 mph - N/A   Clear
7:00 PM 58 °F - 31 °F 23% 30.25 in 16 mi WNW 6.9 mph - -   Clear
7:00 PM 57.2 °F - 30.2 °F 36% 30.24 in - WNW 8.1 mph - N/A   Clear
7:30 PM 55.4 °F - 30.2 °F 38% 30.24 in - WNW 5.8 mph - N/A   Clear
8:00 PM 52 °F - 33 °F 35% 30.27 in - NE 3.5 mph - -  
8:00 PM 53.6 °F - 32.0 °F 44% 30.24 in - NNE 3.5 mph - N/A   Clear
8:30 PM 51.8 °F - 33.8 °F 50% 30.24 in - South 1.2 mph - N/A   Clear
9:00 PM 48 °F - 33 °F 45% 30.28 in - NE 2.3 mph - -  
9:00 PM 48.2 °F - 33.8 °F 58% 30.27 in - Calm Calm - N/A   Clear
9:30 PM 48.2 °F - 33.8 °F 58% 30.27 in - Calm Calm - N/A   Clear
10:00 PM 44 °F - 34 °F 57% 30.29 in 12 mi NE 4.6 mph - -  
10:00 PM 42.8 °F - 33.8 °F 70% 30.27 in - Calm Calm - N/A   Clear
10:30 PM 42.8 °F - 33.8 °F 70% 30.27 in - Calm Calm - N/A   Clear
11:00 PM 41 °F - 33 °F 62% 30.30 in - Calm Calm - -  
11:00 PM 41.0 °F - 32.0 °F 70% 30.27 in - Calm Calm - N/A   Clear
11:30 PM 39.2 °F - 32.0 °F 75% 30.27 in - Calm Calm - N/A   Clear